Location: Unspecified
(0.0000°N, 0.0000°E)
Time: 01:20:24
(UTC+02:00)

Vanguard 1 Rocket - Visible Passes

Search period start: 25 May 2015 00:00
Search period end: 04 June 2015 00:00
Orbit: 655 x 4224 km, 34.3° (Epoch: 24 May)

Date Brightness Start Highest point End Pass type
(mag) Time Alt. Az. Time Alt. Az. Time Alt. Az.
25 May 10.9 01:19:10 10° NNW 01:36:22 39° NNE 02:00:16 10° E visible
25 May 10.4 03:46:31 10° NW 04:11:05 87° NE 04:35:06 10° SE visible
25 May 10.6 06:22:19 12° W 06:45:20 43° SW 07:02:20 10° SSE visible
26 May 11.1 00:08:28 10° NNW 00:21:05 26° NNE 00:28:28 23° NE visible
26 May 10.7 02:33:51 10° NW 03:02:02 57° E 03:21:02 10° ESE visible
26 May 10.4 05:19:40 45° W 05:29:58 61° SW 05:50:54 10° SE visible
26 May 11.2 22:59:00 10° N 23:06:12 15° NNE 23:17:14 10° ENE visible
27 May 10.7 01:22:14 10° NNW 01:57:49 23° E 02:04:59 10° ESE visible
27 May 10.3 03:49:57 10° NW 04:15:21 80° SSW 04:38:26 10° SE visible
27 May 10.7 06:32:53 20° W 06:49:04 36° SSW 07:05:26 10° SSE visible
28 May 10.9 00:11:34 10° NNW 00:25:06 32° NNE 00:27:17 31° NE visible
28 May 10.9 02:37:04 10° NW 03:10:19 46° ESE 03:24:41 10° ESE visible
28 May 10.5 05:27:47 47° WSW 05:33:23 51° SW 05:54:00 10° SE visible
28 May 11.0 23:01:58 10° N 23:10:38 19° NNE 23:18:49 15° ENE visible
29 May 10.6 01:25:22 10° NW 02:04:51 18° ESE 02:09:13 10° ESE visible
29 May 10.5 04:22:17 62° S 04:22:17 62° S 04:41:37 10° SE visible
29 May 10.9 06:39:44 21° WSW 06:53:09 30° SSW 07:08:36 10° SSE visible
30 May 10.6 00:14:38 10° NNW 00:27:47 38° NNE 00:27:47 38° NNE visible
30 May 11.0 02:40:26 10° NW 03:16:28 39° SE 03:28:05 10° SE visible
30 May 10.6 05:33:52 42° SW 05:37:04 43° SSW 05:57:04 10° SSE visible
30 May 10.8 23:04:53 10° NNW 23:14:46 23° NE 23:19:46 22° NE visible
31 May 10.6 01:28:35 10° NW 02:10:25 15° ESE 02:13:04 10° ESE visible
31 May 10.7 04:27:48 50° S 04:27:48 50° S 04:44:41 10° SE visible
31 May 11.0 06:45:11 19° WSW 06:57:33 25° SSW 07:11:54 10° SSE visible
31 May 11.0 21:57:27 10° NNE 22:01:01 12° NNE 22:06:42 10° NE visible
01 Jun 10.4 00:17:44 10° NNW 00:29:04 44° NNE 00:29:04 44° NNE visible
01 Jun 11.1 02:44:00 10° WNW 03:21:32 33° SE 03:31:16 10° SE visible
01 Jun 10.8 05:38:54 36° SW 05:41:03 36° SSW 06:00:11 10° SSE visible
01 Jun 10.6 23:07:49 10° NNW 23:18:35 29° NE 23:21:17 29° NE visible
02 Jun 10.7 01:31:55 10° NW 02:15:06 13° SE 02:16:34 10° SE visible
02 Jun 10.8 04:32:28 41° S 04:32:28 41° S 04:47:41 10° SE visible
02 Jun 11.1 06:49:49 16° SW 07:02:18 22° SSW 07:15:30 10° SSE visible
02 Jun 10.8 21:59:24 10° N 22:05:17 15° NNE 22:13:35 11° ENE visible
03 Jun 10.2 00:20:54 10° NW 00:30:49 48° N 00:30:49 48° N visible
03 Jun 11.3 02:47:48 10° WNW 03:25:53 28° SE 03:34:18 10° SE visible
03 Jun 10.9 05:43:13 30° SSW 05:45:23 30° SSW 06:03:25 10° SSE visible
03 Jun 10.3 23:10:49 10° NNW 23:22:08 36° NE 23:23:13 36° NE visible
